Content
SEND FEEDBACK

Daily
Averages
Monthly
Summary
United States of America

EL PASO, TEXAS


Home > North America > United States > Texas
Elevation: 3918 feet     Latitude: 31 48N     Longitude: 106 24W

WEATHER
 
SELECT A DAY
Number of Records: 175,351;   Date Range: 1/1/95 - 11/23/14
 
SHARE

PRINT THIS DATA

[ ← Previous Day ]
WEATHER ALMANAC - APRIL 17, 2013
[ Next Day → ]
[ °C ]   °F
Weather ElementAverageHighLow
Temperature70.3 °F82 °F (12:51 pm)55.9 °F (11:51 pm)
Dewpoint16.4 °F25 °F (8:51 am)8.1 °F (1:51 pm)
Humidity13.6 %21 % (6:51 am)6 % (1:51 pm)
Barometer29.62 in29.80 in (8:21 pm)29.48 in (2:51 pm)
Wind Speed24 mph36.8 mph (2:51 pm)
Wind Gust54.1 mph (2:51 pm)
Weather ElementAverage
Visibility6.3 mi
Wind DirectionWSW (257.9 °)

Weather ElementTotal
Precipitation---
Cooling Degree Days4 (Base 65)
Growing Degree Days19 (Base 50)
Averaged from 28 records on April 17, 2013
WEATHER CONDITIONS BREAKOUT
WIND DIRECTION BREAKOUT
WEATHER BY HOUR - APRIL 17, 2013
[ °C ]   °F
Local TimeTemperatureDewpointHumidityBarometerVisibilityWind DirectionWind SpeedGust SpeedPrecipitationEventsConditions
1:51 AM69.1 °F16.0 °F13 %29.61 in10.0 miSW (220°)13.8 mphClear
2:51 AM66.9 °F17.1 °F15 %29.60 in10.0 miWSW (240°)15.0 mphClear
3:51 AM64.0 °F18.0 °F17 %29.60 in10.0 miSW (220°)8.1 mphClear
4:51 AM64.9 °F19.0 °F17 %29.59 in10.0 miWSW (250°)13.8 mphClear
5:51 AM64.0 °F19.9 °F18 %29.60 in10.0 miWSW (250°)12.7 mphClear
6:51 AM63.0 °F21.9 °F21 %29.61 in10.0 miWSW (240°)12.7 mphPartly Cloudy
7:51 AM64.9 °F24.1 °F21 %29.62 in10.0 miWSW (240°)13.8 mphPartly Cloudy
8:51 AM66.0 °F25.0 °F21 %29.63 in10.0 miWSW (240°)20.7 mphPartly Cloudy
9:51 AM69.1 °F24.1 °F18 %29.62 in10.0 miWSW (240°)13.8 mphPartly Cloudy
10:51 AM75.9 °F17.1 °F11 %29.59 in10.0 miSW (220°)16.1 mph31.1 mphPartly Cloudy
11:51 AM78.1 °F14.0 °F9 %29.57 in10.0 miSW (220°)20.7 mph28.8 mphPartly Cloudy
12:51 PM82.0 °F12.0 °F7 %29.53 in10.0 miWSW (240°)21.9 mph27.6 mphPartly Cloudy
1:51 PM81.0 °F8.1 °F6 %29.50 in2.0 miWSW (250°)28.8 mph43.7 mphWidespread Dust
2:08 PM80.6 °F8.6 °F6 %29.70 in1.2 miWest (260°)33.4 mph41.4 mphWidespread Dust
2:51 PM81.0 °F10.0 °F7 %29.48 in1.2 miWSW (250°)36.8 mph54.1 mphWidespread Dust
3:45 PM80.6 °F12.2 °F8 %29.68 in2.0 miWSW (240°)36.8 mph46.0 mphWidespread Dust
3:51 PM80.1 °F12.0 °F8 %29.49 in2.0 miSW (230°)33.4 mph43.7 mphWidespread Dust
4:26 PM78.8 °F17.6 °F10 %29.69 in1.2 miWSW (250°)35.7 mph44.9 mphWidespread Dust
4:51 PM79.0 °F16.0 °F9 %29.49 in1.0 miWSW (250°)35.7 mph49.5 mphWidespread Dust
5:43 PM75.2 °F19.4 °F12 %29.70 in2.5 miWSW (250°)34.5 mph44.9 mphWidespread Dust
5:51 PM75.0 °F21.0 °F13 %29.52 in2.5 miWest (260°)33.4 mph48.3 mphWidespread Dust
6:51 PM71.1 °F19.9 °F14 %29.56 in2.5 miWNW (290°)29.9 mph43.7 mphWidespread Dust
7:51 PM64.0 °F18.0 °F17 %29.63 in2.5 miWNW (300°)32.2 mph46.0 mphWidespread Dust
8:21 PM62.6 °F15.8 °F16 %29.80 in3.0 miWNW (290°)27.6 mph43.7 mphWidespread Dust
8:51 PM61.0 °F12.9 °F15 %29.68 in4.0 miWNW (290°)32.2 mph48.3 mphWidespread Dust
9:51 PM57.9 °F14.0 °F18 %29.74 in10.0 miWNW (300°)23.0 mph39.1 mphClear
10:51 PM57.9 °F12.9 °F17 %29.78 in10.0 miNorth (350°)19.6 mph23.0 mphMostly Cloudy
11:51 PM55.9 °F12.9 °F18 %29.79 in10.0 miNNW (340°)15.0 mphScattered Clouds
Hourly data recorded from KELP, located miles away from El Paso, Texas







STORIES FROM OUR PARTNERS